This demonstration page uses our WeatherBlox Daily Observations layout. Learn more.

39.92423, -83.80882

Hourly Observations for May 22, 2016

Temp ( °F °C ) Dew Point ( °F °C ) Humidity (%) Winds ( mph kmh ) Pressure ( in mb ) Visibility ( mi km ) Precip ( " mm )
12:56 am 00:56 Clear 51 10.5 49 9.4 93 93 W 6 9 30.02 1017 10 16.0934 0 0
1:56 am 01:56 Clear 51 10.5 49 9.4 93 93 W 6 9 30.02 1017 10 16.0934 0 0
2:56 am 02:56 Clear 49 9.4 49 9.4 100 100 W 6 9 30.02 1017 10 16.0934 0 0
3:56 am 03:56 Clear 50 10 49 9.4 96 96 W 8 13 30.02 1017 10 16.0934 0 0
4:56 am 04:56 Clear 49 9.4 47 8.3 93 93 NW 6 9 30.01 1016 10 16.0934 0 0
5:56 am 05:56 Clear 48 8.8 46 7.7 93 93 W 6 9 30.01 1016 10 16.0934 0 0
6:56 am 06:56 Sunny 49 9.4 47 8.3 93 93 W 6 9 30.03 1017 10 16.0934 0 0
7:56 am 07:56 Sunny 53 11.6 48 8.8 83 83 W 8 13 30.04 1017 10 16.0934 0 0
8:56 am 08:56 Mostly Sunny 55 12.7 48 8.8 77 77 W 9 15 30.03 1017 10 16.0934 0 0
9:56 am 09:56 Mostly Sunny 59 15 49 9.4 69 69 WNW 7 11 30.04 1017 10 16.0934 0 0
10:56 am 10:56 Sunny 62 16.6 50 10 65 65 W 8 13 30.03 1017 10 16.0934 0 0
11:56 am 11:56 Sunny 66 18.8 50 10 57 57 W 7 11 30.02 1017 10 16.0934 0 0
12:56 pm 12:56 Sunny 71 21.6 50 10 48 48 NNW 12 19 30 1016 10 16.0934 0 0
1:56 pm 13:56 Sunny 74 23.3 47 8.3 38 38 NNW 16 26 29.98 1015 10 16.0934 0 0
2:56 pm 14:56 Mostly Sunny 75 23.8 46 7.7 36 36 NW 17 28 29.98 1015 10 16.0934 0 0
3:56 pm 15:56 Mostly Sunny 74 23.3 45 7.2 36 36 NW 12 19 29.98 1015 10 16.0934 0 0
4:56 pm 16:56 Mostly Sunny 75 23.8 47 8.3 37 37 N 15 24 29.96 1015 10 16.0934 0 0
5:56 pm 17:56 Sunny 74 23.3 47 8.3 38 38 NNE 16 26 29.97 1015 10 16.0934 0 0
6:56 pm 18:56 Sunny 72 22.2 46 7.7 39 39 NNE 14 22 29.96 1015 10 16.0934 0 0
7:56 pm 19:56 Sunny 69 20.5 46 7.7 44 44 NNE 9 15 29.97 1015 10 16.0934 0 0
8:56 pm 20:56 Clear 61 16.1 47 8.3 60 60 NNE 7 11 29.98 1015 10 16.0934 0 0
9:56 pm 21:56 Clear 57 13.8 48 8.8 72 72 ENE 6 9 30 1016 10 16.0934 0 0
10:56 pm 22:56 Clear 56 13.3 46 7.7 69 69 NE 8 13 30.02 1017 10 16.0934 0 0
11:56 pm 23:56 Clear 54 12.2 46 7.7 74 74 NE 8 13 30.03 1017 10 16.0934 0 0

Powered by AerisWeather